This demonstration page uses our WeatherBlox Daily Observations layout. Learn more.

Left ArrowRight Arrow

39.92423, -83.80882

Hourly Observations for February 25, 2016

Temp ( °F °C ) Dew Point ( °F °C ) Humidity (%) Winds ( mph kmh ) Pressure ( in mb ) Visibility ( mi km ) Precip ( " mm )
12:02 am 00:02 Cloudy with Light Snow 32 undefined 32 undefined 100 100 W 14 22 29.44 997 3 5 0.01 0.25
12:33 am 00:33 Cloudy with Light Snow 32 undefined 32 undefined 100 100 W 17 28 29.47 998 10 16 0.01 0.25
12:56 am 00:56 Cloudy with Light Snow 32 undefined 31 -0.5 96 96 W 18 30 29.43 997 7 11 0.01 0.25
1:32 am 01:32 Cloudy with Light Snow 30 -1 30 -1 100 100 W 17 28 29.50 999 2 3 N/A
1:43 am 01:43 Cloudy with Light Snow 30 -1 30 -1 100 100 W 18 30 29.50 999 3 5 N/A
1:56 am 01:56 Cloudy with Light Snow 31 -0.5 30 -1.1 96 96 W 17 28 29.47 998 10 16 N/A
2:18 am 02:18 Cloudy 30 -1 28 -2 93 93 W 23 37 29.53 1000 10 16 N/A
2:27 am 02:27 Cloudy 30 -1 28 -2 93 93 W 16 26 29.53 1000 10 16 N/A
2:56 am 02:56 Cloudy with Light Snow 31 -0.5 29 -1.6 92 92 W 17 28 29.49 999 5 8 N/A
3:38 am 03:38 Cloudy with Light Snow 30 -1 28 -2 93 93 W 18 30 29.56 1001 4 6 N/A
3:56 am 03:56 Cloudy with Light Snow 31 -0.5 29 -1.6 92 92 W 16 26 29.52 1000 6 10 N/A
4:14 am 04:14 Cloudy with Mist and Fog 30 -1 28 -2 93 93 W 15 24 29.59 1002 2 3 N/A
4:28 am 04:28 Cloudy with Light Snow 30 -1 28 -2 93 93 W 17 28 29.59 1002 10 16 N/A
4:56 am 04:56 Cloudy 31 -0.5 29 -1.6 92 92 W 17 28 29.55 1001 10 16 N/A
5:05 am 05:05 Cloudy 32 undefined 28 -2 87 87 W 15 24 29.59 1002 10 16 N/A
5:18 am 05:18 Cloudy with Light Snow 32 undefined 28 -2 87 87 W 16 26 29.59 1002 10 16 N/A
5:56 am 05:56 Cloudy with Light Snow 32 undefined 30 -1.1 92 92 W 18 30 29.57 1002 5 8 N/A
6:36 am 06:36 Cloudy with Light Snow 32 undefined 30 -1 93 93 W 18 30 29.59 1002 3 4 N/A
6:43 am 06:43 Mostly Cloudy with Light Snow 32 undefined 30 -1 93 93 W 15 24 29.59 1002 2 3 N/A
6:56 am 06:56 Cloudy with Light Snow 32 undefined 31 -0.5 96 96 W 15 24 29.60 1002 2 3 N/A
7:04 am 07:04 Cloudy with Light Snow 32 undefined 30 -1 93 93 W 14 22 29.62 1003 3 5 N/A
7:23 am 07:23 Cloudy with Light Snow 32 undefined 30 -1 93 93 W 17 28 29.62 1003 10 16 N/A
7:49 am 07:49 Cloudy with Light Snow 32 undefined 30 -1 93 93 W 18 30 29.65 1004 10 16 N/A
7:56 am 07:56 Windy with Snow Likely 32 undefined 30 -1.1 92 92 W 20 31 29.63 1003 10 16 N/A
8:56 am 08:56 Cloudy 33 0.5 30 -1.1 89 89 W 23 37 29.67 1005 10 16 N/A
9:19 am 09:19 Cloudy with Light Snow 34 1 30 -1 87 87 W 15 24 29.71 1006 5 8 N/A
9:38 am 09:38 Cloudy with Light Snow 34 1 30 -1 87 87 W 18 30 29.71 1006 3 5 N/A
9:56 am 09:56 Cloudy with Light Snow 33 0.5 31 -0.5 93 93 W 16 26 29.71 1006 6 10 N/A
10:11 am 10:11 Cloudy with Light Snow 34 1 30 -1 87 87 W 17 28 29.74 1007 3 4 N/A
10:13 am 10:13 Windy with Snow Likely 34 1 30 -1 87 87 W 20 31 29.74 1007 3 5 N/A
10:20 am 10:20 Cloudy with Light Snow 34 1 30 -1 87 87 W 18 30 29.74 1007 4 6 N/A
10:44 am 10:44 Cloudy with Light Snow 34 1 30 -1 87 87 W 18 30 29.74 1007 3 4 N/A
10:56 am 10:56 Windy with Snow Likely 33 0.5 31 -0.5 93 93 W 20 31 29.74 1007 3 4 N/A
11:04 am 11:04 Windy with Snow Likely 34 1 32 undefined 93 93 W 20 31 29.74 1007 4 6 N/A
11:16 am 11:16 Cloudy with Light Snow 34 1 32 undefined 93 93 W 17 28 29.74 1007 3 4 N/A
11:32 am 11:32 Cloudy with Light Snow 34 1 32 undefined 93 93 W 17 28 29.77 1008 1 2 N/A
11:42 am 11:42 Cloudy with Light Snow 34 1 32 undefined 93 93 W 17 28 29.77 1008 1 2 N/A
11:56 am 11:56 Cloudy with Light Snow 33 0.5 32 undefined 96 96 W 16 26 29.77 1008 1 2 N/A
12:03 pm 12:03 Windy with Snow Likely 34 1 32 undefined 93 93 W 20 31 29.77 1008 1 2 N/A
12:11 pm 12:11 Windy with Snow Likely 34 1 32 undefined 93 93 W 22 35 29.77 1008 1 1 0.01 0.25
12:37 pm 12:37 Cloudy with Mist and Fog 34 1 32 undefined 93 93 W 21 33 29.80 1009 1 2 0.01 0.25
12:47 pm 12:47 Cloudy with Light Snow 34 1 32 undefined 93 93 W 18 30 29.80 1009 1 2 0.01 0.25
12:56 pm 12:56 Cloudy with Mist and Fog 33 0.5 33 0.5 100 100 W 21 33 29.80 1009 1 2 0.01 0.25
1:03 pm 13:03 Cloudy with Mist and Fog 34 1 34 1 100 100 W 21 33 29.80 1009 1 2 N/A
1:14 pm 13:14 Cloudy with Mist and Fog 34 1 32 undefined 93 93 W 16 26 29.80 1009 1 2 0.01 0.25
1:26 pm 13:26 Cloudy with Mist and Fog 34 1 32 undefined 93 93 W 17 28 29.80 1009 2 2 0.01 0.25
1:56 pm 13:56 Windy with Snow Likely 33 0.5 32 undefined 96 96 W 22 35 29.82 1010 2 2 0.01 0.25
2:31 pm 14:31 Cloudy with Light Snow 34 1 32 undefined 93 93 W 18 30 29.83 1010 3 4 N/A
2:56 pm 14:56 Cloudy with Light Snow 33 0.5 32 undefined 96 96 W 16 26 29.85 1011 2 3 N/A
3:05 pm 15:05 Cloudy with Light Snow 34 1 32 undefined 93 93 W 17 28 29.88 1012 2 3 0.01 0.25
3:17 pm 15:17 Cloudy with Light Snow 34 1 30 -1 87 87 W 17 28 29.88 1012 3 4 0.01 0.25
3:27 pm 15:27 Windy with Snow Likely 34 1 32 undefined 93 93 W 20 31 29.91 1013 2 3 0.01 0.25
3:33 pm 15:33 Windy with Snow Likely 34 1 32 undefined 93 93 W 21 33 29.91 1013 1 2 0.01 0.25
3:40 pm 15:40 Windy with Snow Likely 32 undefined 30 -1 93 93 W 25 41 29.91 1013 1 2 0.01 0.25
3:44 pm 15:44 Windy with Snow Likely 32 undefined 30 -1 93 93 W 21 33 29.91 1013 1 2 0.01 0.25
3:48 pm 15:48 Cloudy with Light Snow 32 undefined 30 -1 93 93 W 18 30 29.91 1013 2 3 0.01 0.25
3:56 pm 15:56 Windy with Snow Likely 32 undefined 31 -0.5 96 96 W 22 35 29.89 1012 2 3 0.01 0.25
4:34 pm 16:34 Windy with Snow Likely 34 1 30 -1 87 87 W 22 35 29.94 1014 6 10 N/A
4:37 pm 16:37 Mostly Cloudy with Light Snow 34 1 30 -1 87 87 W 20 31 29.94 1014 10 16 N/A
4:56 pm 16:56 Cloudy with Light Snow 33 0.5 30 -1.1 89 89 W 16 26 29.93 1014 10 16 N/A
5:56 pm 17:56 Cloudy 32 undefined 27 -2.7 82 82 W 20 31 29.97 1015 10 16 N/A
6:56 pm 18:56 Cloudy 32 undefined 25 -3.8 76 76 W 24 39 30.00 1016 10 16 N/A
7:56 pm 19:56 Cloudy 31 -0.5 25 -3.8 79 79 W 23 37 30.03 1017 10 16 N/A
8:56 pm 20:56 Cloudy 30 -1.1 24 -4.4 79 79 W 20 31 30.06 1018 10 16 N/A
9:56 pm 21:56 Cloudy 30 -1.1 23 -5 75 75 W 21 33 30.07 1018 10 16 N/A
10:56 pm 22:56 Cloudy 29 -1.6 23 -5 78 78 W 23 37 30.09 1019 10 16 N/A
11:56 pm 23:56 Cloudy 28 -2.2 22 -5.5 78 78 W 14 22 30.11 1020 10 16 N/A

Powered by AerisWeather